Date_Time,Julian_Date,Latitude,Longitude,Instrument_Depth,U,V,Speed,Direction
(yyyy-mm-dd hh:mn:ss UTC),(JD),(+ deg. North),(+ deg. East),(m),(cm/s),(cm/s),(cm/s),(deg True)
1982-02-17 17:00:00 UTC,2445018.208333,29.6417,-93.6667,0037,-12.00,0.21,12.0000,271.0000
1982-02-17 17:30:00 UTC,2445018.229167,29.6417,-93.6667,0037,-9.99,-0.35,10.0000,268.0000
1982-02-17 18:00:00 UTC,2445018.250000,29.6417,-93.6667,0037,-9.93,-1.22,10.0000,263.0000
1982-02-17 18:30:00 UTC,2445018.270833,29.6417,-93.6667,0037,-9.66,-2.59,10.0000,255.0000
1982-02-17 19:00:00 UTC,2445018.291667,29.6417,-93.6667,0037,-10.20,-4.12,11.0000,248.0000
1982-02-17 19:30:00 UTC,2445018.312500,29.6417,-93.6667,0037,-12.69,-5.92,14.0000,245.0000
1982-02-17 20:00:00 UTC,2445018.333333,29.6417,-93.6667,0037,-17.36,-7.73,19.0000,246.0000
1982-02-17 20:30:00 UTC,2445018.354167,29.6417,-93.6667,0037,-20.25,-8.60,22.0000,247.0000
1982-02-17 21:00:00 UTC,2445018.375000,29.6417,-93.6667,0037,-20.25,-8.60,22.0000,247.0000
1982-02-17 21:30:00 UTC,2445018.395833,29.6417,-93.6667,0037,-20.85,-9.72,23.0000,245.0000
1982-02-17 22:00:00 UTC,2445018.416667,29.6417,-93.6667,0037,-20.31,-10.80,23.0000,242.0000
1982-02-17 22:30:00 UTC,2445018.437500,29.6417,-93.6667,0037,-19.92,-11.50,23.0000,240.0000
1982-02-17 23:00:00 UTC,2445018.458333,29.6417,-93.6667,0037,-19.71,-11.85,23.0000,239.0000
1982-02-17 23:30:00 UTC,2445018.479167,29.6417,-93.6667,0037,-19.92,-11.50,23.0000,240.0000
1982-02-18 00:00:00 UTC,2445018.500000,29.6417,-93.6667,0037,-19.92,-11.50,23.0000,240.0000
1982-02-18 00:30:00 UTC,2445018.520833,29.6417,-93.6667,0037,-19.92,-11.50,23.0000,240.0000
1982-02-18 01:00:00 UTC,2445018.541667,29.6417,-93.6667,0037,-19.92,-11.50,23.0000,240.0000
1982-02-18 01:30:00 UTC,2445018.562500,29.6417,-93.6667,0037,-19.60,-9.99,22.0000,243.0000
1982-02-18 02:00:00 UTC,2445018.583333,29.6417,-93.6667,0037,-20.10,-8.95,22.0000,246.0000
1982-02-18 02:30:00 UTC,2445018.604167,29.6417,-93.6667,0037,-22.09,-9.38,24.0000,247.0000
1982-02-18 03:00:00 UTC,2445018.625000,29.6417,-93.6667,0037,-23.01,-9.77,25.0000,247.0000
1982-02-18 03:30:00 UTC,2445018.645833,29.6417,-93.6667,0037,-23.75,-10.58,26.0000,246.0000
1982-02-18 04:00:00 UTC,2445018.666667,29.6417,-93.6667,0037,-23.56,-10.99,26.0000,245.0000
1982-02-18 04:30:00 UTC,2445018.687500,29.6417,-93.6667,0037,-22.47,-10.96,25.0000,244.0000
1982-02-18 05:00:00 UTC,2445018.708333,29.6417,-93.6667,0037,-21.38,-10.90,24.0000,243.0000
1982-02-18 05:30:00 UTC,2445018.729167,29.6417,-93.6667,0037,-22.47,-10.96,25.0000,244.0000
1982-02-18 06:00:00 UTC,2445018.750000,29.6417,-93.6667,0037,-23.01,-9.77,25.0000,247.0000
1982-02-18 06:30:00 UTC,2445018.770833,29.6417,-93.6667,0037,-22.55,-8.21,24.0000,250.0000
1982-02-18 07:00:00 UTC,2445018.791667,29.6417,-93.6667,0037,-20.80,-7.16,22.0000,251.0000
1982-02-18 07:30:00 UTC,2445018.812500,29.6417,-93.6667,0037,-19.86,-6.84,21.0000,251.0000
1982-02-18 08:00:00 UTC,2445018.833333,29.6417,-93.6667,0037,-18.91,-6.51,20.0000,251.0000
1982-02-18 08:30:00 UTC,2445018.854167,29.6417,-93.6667,0037,-16.91,-6.16,18.0000,250.0000
1982-02-18 09:00:00 UTC,2445018.875000,29.6417,-93.6667,0037,-15.04,-5.47,16.0000,250.0000
1982-02-18 09:30:00 UTC,2445018.895833,29.6417,-93.6667,0037,-14.00,-5.38,15.0000,249.0000
1982-02-18 10:00:00 UTC,2445018.916667,29.6417,-93.6667,0037,-14.83,-5.99,16.0000,248.0000
1982-02-18 10:30:00 UTC,2445018.937500,29.6417,-93.6667,0037,-15.30,-4.68,16.0000,253.0000
1982-02-18 11:00:00 UTC,2445018.958333,29.6417,-93.6667,0037,-14.62,-3.37,15.0000,257.0000
1982-02-18 11:30:00 UTC,2445018.979167,29.6417,-93.6667,0037,-12.72,-2.70,13.0000,258.0000
1982-02-18 12:00:00 UTC,2445019.000000,29.6417,-93.6667,0037,-11.59,-3.11,12.0000,255.0000
1982-02-18 12:30:00 UTC,2445019.020833,29.6417,-93.6667,0037,-9.80,-4.99,11.0000,243.0000
1982-02-18 13:00:00 UTC,2445019.041667,29.6417,-93.6667,0037,-6.99,-5.66,9.0000,231.0000
1982-02-18 13:30:00 UTC,2445019.062500,29.6417,-93.6667,0037,-6.58,-6.14,9.0000,227.0000
1982-02-18 14:00:00 UTC,2445019.083333,29.6417,-93.6667,0037,-6.89,-5.79,9.0000,230.0000
1982-02-18 14:30:00 UTC,2445019.104167,29.6417,-93.6667,0037,-7.37,-5.16,9.0000,235.0000
1982-02-18 15:00:00 UTC,2445019.125000,29.6417,-93.6667,0037,-8.57,-5.15,10.0000,239.0000
1982-02-18 15:30:00 UTC,2445019.145833,29.6417,-93.6667,0037,-9.06,-4.23,10.0000,245.0000
1982-02-18 16:00:00 UTC,2445019.166667,29.6417,-93.6667,0037,-9.34,-3.58,10.0000,249.0000
1982-02-18 16:30:00 UTC,2445019.187500,29.6417,-93.6667,0037,-10.13,-4.30,11.0000,247.0000
1982-02-18 17:00:00 UTC,2445019.208333,29.6417,-93.6667,0037,-9.97,-4.65,11.0000,245.0000
1982-02-18 17:30:00 UTC,2445019.229167,29.6417,-93.6667,0037,-10.34,-3.76,11.0000,250.0000
1982-02-18 18:00:00 UTC,2445019.250000,29.6417,-93.6667,0037,-11.54,-3.31,12.0000,254.0000
1982-02-18 18:30:00 UTC,2445019.270833,29.6417,-93.6667,0037,-10.88,-5.07,12.0000,245.0000
1982-02-18 19:00:00 UTC,2445019.291667,29.6417,-93.6667,0037,-10.10,-8.18,13.0000,231.0000
1982-02-18 19:30:00 UTC,2445019.312500,29.6417,-93.6667,0037,-9.35,-9.03,13.0000,226.0000
1982-02-18 20:00:00 UTC,2445019.333333,29.6417,-93.6667,0037,-10.40,-9.37,14.0000,228.0000
1982-02-18 20:30:00 UTC,2445019.354167,29.6417,-93.6667,0037,-10.40,-9.37,14.0000,228.0000
1982-02-18 21:00:00 UTC,2445019.375000,29.6417,-93.6667,0037,-9.73,-10.07,14.0000,224.0000
1982-02-18 21:30:00 UTC,2445019.395833,29.6417,-93.6667,0037,-9.00,-10.72,14.0000,220.0000
1982-02-18 22:00:00 UTC,2445019.416667,29.6417,-93.6667,0037,-7.82,-10.38,13.0000,217.0000
1982-02-18 22:30:00 UTC,2445019.437500,29.6417,-93.6667,0037,-7.05,-9.71,12.0000,216.0000
1982-02-18 23:00:00 UTC,2445019.458333,29.6417,-93.6667,0037,-5.00,-8.66,10.0000,210.0000
1982-02-18 23:30:00 UTC,2445019.479167,29.6417,-93.6667,0037,-3.37,-8.34,9.0000,202.0000
1982-02-19 00:00:00 UTC,2445019.500000,29.6417,-93.6667,0037,-2.21,-7.69,8.0000,196.0000
1982-02-19 00:30:00 UTC,2445019.520833,29.6417,-93.6667,0037,-1.53,-7.85,8.0000,191.0000
1982-02-19 01:00:00 UTC,2445019.541667,29.6417,-93.6667,0037,-0.97,-7.94,8.0000,187.0000
1982-02-19 01:30:00 UTC,2445019.562500,29.6417,-93.6667,0037,-0.97,-7.94,8.0000,187.0000
1982-02-19 02:00:00 UTC,2445019.583333,29.6417,-93.6667,0037,-0.24,-7.00,7.0000,182.0000
1982-02-19 02:30:00 UTC,2445019.604167,29.6417,-93.6667,0037,1.79,-4.67,5.0000,159.0000
1982-02-19 03:00:00 UTC,2445019.625000,29.6417,-93.6667,0037,4.79,-3.61,6.0000,127.0000
1982-02-19 03:30:00 UTC,2445019.645833,29.6417,-93.6667,0037,6.44,-2.74,7.0000,113.0000
1982-02-19 04:00:00 UTC,2445019.666667,29.6417,-93.6667,0037,7.87,-4.36,9.0000,119.0000
1982-02-19 04:30:00 UTC,2445019.687500,29.6417,-93.6667,0037,6.14,-6.58,9.0000,137.0000
1982-02-19 05:00:00 UTC,2445019.708333,29.6417,-93.6667,0037,3.38,-7.25,8.0000,155.0000
1982-02-19 05:30:00 UTC,2445019.729167,29.6417,-93.6667,0037,3.08,-8.46,9.0000,160.0000
1982-02-19 06:00:00 UTC,2445019.750000,29.6417,-93.6667,0037,3.42,-9.40,10.0000,160.0000
1982-02-19 06:30:00 UTC,2445019.770833,29.6417,-93.6667,0037,3.26,-9.46,10.0000,161.0000
1982-02-19 07:00:00 UTC,2445019.791667,29.6417,-93.6667,0037,3.42,-9.40,10.0000,160.0000
1982-02-19 07:30:00 UTC,2445019.812500,29.6417,-93.6667,0037,4.47,-10.05,11.0000,156.0000
1982-02-19 08:00:00 UTC,2445019.833333,29.6417,-93.6667,0037,5.63,-10.60,12.0000,152.0000
1982-02-19 08:30:00 UTC,2445019.854167,29.6417,-93.6667,0037,5.82,-10.50,12.0000,151.0000
1982-02-19 09:00:00 UTC,2445019.875000,29.6417,-93.6667,0037,6.10,-11.48,13.0000,152.0000
1982-02-19 09:30:00 UTC,2445019.895833,29.6417,-93.6667,0037,5.26,-10.79,12.0000,154.0000
1982-02-19 10:00:00 UTC,2445019.916667,29.6417,-93.6667,0037,4.69,-11.05,12.0000,157.0000
1982-02-19 10:30:00 UTC,2445019.937500,29.6417,-93.6667,0037,4.88,-10.96,12.0000,156.0000
1982-02-19 11:00:00 UTC,2445019.958333,29.6417,-93.6667,0037,5.67,-9.43,11.0000,149.0000
1982-02-19 11:30:00 UTC,2445019.979167,29.6417,-93.6667,0037,6.29,-7.77,10.0000,141.0000
1982-02-19 12:00:00 UTC,2445020.000000,29.6417,-93.6667,0037,7.31,-6.82,10.0000,133.0000
1982-02-19 12:30:00 UTC,2445020.020833,29.6417,-93.6667,0037,7.87,-4.36,9.0000,119.0000
1982-02-19 13:00:00 UTC,2445020.041667,29.6417,-93.6667,0037,8.69,-2.33,9.0000,105.0000
1982-02-19 13:30:00 UTC,2445020.062500,29.6417,-93.6667,0037,8.80,-1.87,9.0000,102.0000
1982-02-19 14:00:00 UTC,2445020.083333,29.6417,-93.6667,0037,7.88,-1.39,8.0000,100.0000
1982-02-19 14:30:00 UTC,2445020.104167,29.6417,-93.6667,0037,8.00,0.00,8.0000,90.0000
1982-02-19 15:00:00 UTC,2445020.125000,29.6417,-93.6667,0037,7.97,0.70,8.0000,85.0000
1982-02-19 15:30:00 UTC,2445020.145833,29.6417,-93.6667,0037,6.97,-0.61,7.0000,95.0000
1982-02-19 16:00:00 UTC,2445020.166667,29.6417,-93.6667,0037,3.32,-2.24,4.0000,124.0000
1982-02-19 16:30:00 UTC,2445020.187500,29.6417,-93.6667,0037,-1.72,-2.46,3.0000,215.0000
1982-02-19 17:00:00 UTC,2445020.208333,29.6417,-93.6667,0037,-4.53,-2.11,5.0000,245.0000
1982-02-19 17:30:00 UTC,2445020.229167,29.6417,-93.6667,0037,-6.06,-3.50,7.0000,240.0000
1982-02-19 18:00:00 UTC,2445020.250000,29.6417,-93.6667,0037,-6.47,-4.70,8.0000,234.0000
1982-02-19 18:30:00 UTC,2445020.270833,29.6417,-93.6667,0037,-7.46,-5.03,9.0000,236.0000
1982-02-19 19:00:00 UTC,2445020.291667,29.6417,-93.6667,0037,-8.66,-5.00,10.0000,240.0000
1982-02-19 19:30:00 UTC,2445020.312500,29.6417,-93.6667,0037,-8.75,-4.85,10.0000,241.0000
1982-02-19 20:00:00 UTC,2445020.333333,29.6417,-93.6667,0037,-9.12,-6.15,11.0000,236.0000
1982-02-19 20:30:00 UTC,2445020.354167,29.6417,-93.6667,0037,-8.17,-7.36,11.0000,228.0000
1982-02-19 21:00:00 UTC,2445020.375000,29.6417,-93.6667,0037,-8.34,-8.63,12.0000,224.0000
1982-02-19 21:30:00 UTC,2445020.395833,29.6417,-93.6667,0037,-9.19,-9.19,13.0000,225.0000
1982-02-19 22:00:00 UTC,2445020.416667,29.6417,-93.6667,0037,-9.35,-9.03,13.0000,226.0000
1982-02-19 22:30:00 UTC,2445020.437500,29.6417,-93.6667,0037,-10.07,-9.73,14.0000,226.0000
1982-02-19 23:00:00 UTC,2445020.458333,29.6417,-93.6667,0037,-10.07,-9.73,14.0000,226.0000
1982-02-19 23:30:00 UTC,2445020.479167,29.6417,-93.6667,0037,-9.81,-8.53,13.0000,229.0000
1982-02-20 00:00:00 UTC,2445020.500000,29.6417,-93.6667,0037,-6.82,-7.31,10.0000,223.0000
1982-02-20 00:30:00 UTC,2445020.520833,29.6417,-93.6667,0037,-4.69,-8.83,10.0000,208.0000
1982-02-20 01:00:00 UTC,2445020.541667,29.6417,-93.6667,0037,-3.58,-9.34,10.0000,201.0000
1982-02-20 01:30:00 UTC,2445020.562500,29.6417,-93.6667,0037,-2.47,-7.61,8.0000,198.0000
1982-02-20 02:00:00 UTC,2445020.583333,29.6417,-93.6667,0037,-2.25,-5.56,6.0000,202.0000
1982-02-20 02:30:00 UTC,2445020.604167,29.6417,-93.6667,0037,-4.70,-6.47,8.0000,216.0000
1982-02-20 03:00:00 UTC,2445020.625000,29.6417,-93.6667,0037,-5.28,-4.59,7.0000,229.0000
1982-02-20 03:30:00 UTC,2445020.645833,29.6417,-93.6667,0037,-3.80,-1.24,4.0000,252.0000
1982-02-20 04:00:00 UTC,2445020.666667,29.6417,-93.6667,0037,-2.62,3.02,4.0000,319.0000
1982-02-20 04:30:00 UTC,2445020.687500,29.6417,-93.6667,0037,-0.31,5.99,6.0000,357.0000
1982-02-20 05:00:00 UTC,2445020.708333,29.6417,-93.6667,0037,2.05,5.64,6.0000,20.0000
1982-02-20 05:30:00 UTC,2445020.729167,29.6417,-93.6667,0037,3.60,3.47,5.0000,46.0000
1982-02-20 06:00:00 UTC,2445020.750000,29.6417,-93.6667,0037,5.00,-0.09,5.0000,91.0000
1982-02-20 06:30:00 UTC,2445020.770833,29.6417,-93.6667,0037,5.64,-2.05,6.0000,110.0000
1982-02-20 07:00:00 UTC,2445020.791667,29.6417,-93.6667,0037,5.64,-2.05,6.0000,110.0000
1982-02-20 07:30:00 UTC,2445020.812500,29.6417,-93.6667,0037,6.12,-3.39,7.0000,119.0000
1982-02-20 08:00:00 UTC,2445020.833333,29.6417,-93.6667,0037,7.55,-4.90,9.0000,123.0000
1982-02-20 08:30:00 UTC,2445020.854167,29.6417,-93.6667,0037,9.23,-5.99,11.0000,123.0000
1982-02-20 09:00:00 UTC,2445020.875000,29.6417,-93.6667,0037,10.38,-7.82,13.0000,127.0000
1982-02-20 09:30:00 UTC,2445020.895833,29.6417,-93.6667,0037,9.96,-8.36,13.0000,130.0000
1982-02-20 10:00:00 UTC,2445020.916667,29.6417,-93.6667,0037,11.33,-8.23,14.0000,126.0000
1982-02-20 10:30:00 UTC,2445020.937500,29.6417,-93.6667,0037,11.74,-7.62,14.0000,123.0000
1982-02-20 11:00:00 UTC,2445020.958333,29.6417,-93.6667,0037,12.99,-7.50,15.0000,120.0000
1982-02-20 11:30:00 UTC,2445020.979167,29.6417,-93.6667,0037,13.99,-7.76,16.0000,119.0000
1982-02-20 12:00:00 UTC,2445021.000000,29.6417,-93.6667,0037,13.99,-7.76,16.0000,119.0000
1982-02-20 12:30:00 UTC,2445021.020833,29.6417,-93.6667,0037,14.13,-7.51,16.0000,118.0000
1982-02-20 13:00:00 UTC,2445021.041667,29.6417,-93.6667,0037,13.48,-6.58,15.0000,116.0000
1982-02-20 13:30:00 UTC,2445021.062500,29.6417,-93.6667,0037,12.99,-7.50,15.0000,120.0000
1982-02-20 14:00:00 UTC,2445021.083333,29.6417,-93.6667,0037,12.58,-8.17,15.0000,123.0000
1982-02-20 14:30:00 UTC,2445021.104167,29.6417,-93.6667,0037,11.87,-7.42,14.0000,122.0000
1982-02-20 15:00:00 UTC,2445021.125000,29.6417,-93.6667,0037,10.88,-8.81,14.0000,129.0000
1982-02-20 15:30:00 UTC,2445021.145833,29.6417,-93.6667,0037,9.00,-10.72,14.0000,140.0000
1982-02-20 16:00:00 UTC,2445021.166667,29.6417,-93.6667,0037,7.64,-10.52,13.0000,144.0000
1982-02-20 16:30:00 UTC,2445021.187500,29.6417,-93.6667,0037,8.70,-9.66,13.0000,138.0000
1982-02-20 17:00:00 UTC,2445021.208333,29.6417,-93.6667,0037,8.87,-9.51,13.0000,137.0000
1982-02-20 17:30:00 UTC,2445021.229167,29.6417,-93.6667,0037,6.70,-11.14,13.0000,149.0000
1982-02-20 18:00:00 UTC,2445021.250000,29.6417,-93.6667,0037,4.09,-13.39,14.0000,163.0000
1982-02-20 18:30:00 UTC,2445021.270833,29.6417,-93.6667,0037,1.22,-13.95,14.0000,175.0000
1982-02-20 19:00:00 UTC,2445021.291667,29.6417,-93.6667,0037,-1.22,-13.95,14.0000,185.0000
1982-02-20 19:30:00 UTC,2445021.312500,29.6417,-93.6667,0037,-1.95,-13.86,14.0000,188.0000
1982-02-20 20:00:00 UTC,2445021.333333,29.6417,-93.6667,0037,-0.49,-13.99,14.0000,182.0000
1982-02-20 20:30:00 UTC,2445021.354167,29.6417,-93.6667,0037,0.73,-13.98,14.0000,177.0000
1982-02-20 21:00:00 UTC,2445021.375000,29.6417,-93.6667,0037,-0.26,-15.00,15.0000,181.0000
1982-02-20 21:30:00 UTC,2445021.395833,29.6417,-93.6667,0037,-2.60,-14.77,15.0000,190.0000
1982-02-20 22:00:00 UTC,2445021.416667,29.6417,-93.6667,0037,-3.88,-14.49,15.0000,195.0000
1982-02-20 22:30:00 UTC,2445021.437500,29.6417,-93.6667,0037,-3.63,-14.55,15.0000,194.0000
1982-02-20 23:00:00 UTC,2445021.458333,29.6417,-93.6667,0037,-3.37,-14.62,15.0000,193.0000
1982-02-20 23:30:00 UTC,2445021.479167,29.6417,-93.6667,0037,-2.86,-14.72,15.0000,191.0000
1982-02-21 00:00:00 UTC,2445021.500000,29.6417,-93.6667,0037,-1.95,-13.86,14.0000,188.0000
1982-02-21 00:30:00 UTC,2445021.520833,29.6417,-93.6667,0037,-1.36,-12.93,13.0000,186.0000
1982-02-21 01:00:00 UTC,2445021.541667,29.6417,-93.6667,0037,-1.58,-12.90,13.0000,187.0000
1982-02-21 01:30:00 UTC,2445021.562500,29.6417,-93.6667,0037,-0.17,-10.00,10.0000,181.0000
1982-02-21 02:00:00 UTC,2445021.583333,29.6417,-93.6667,0037,1.66,-7.83,8.0000,168.0000
1982-02-21 02:30:00 UTC,2445021.604167,29.6417,-93.6667,0037,1.46,-6.85,7.0000,168.0000
1982-02-21 03:00:00 UTC,2445021.625000,29.6417,-93.6667,0037,2.39,-6.58,7.0000,160.0000
1982-02-21 03:30:00 UTC,2445021.645833,29.6417,-93.6667,0037,4.86,-5.04,7.0000,136.0000
1982-02-21 04:00:00 UTC,2445021.666667,29.6417,-93.6667,0037,6.47,-6.25,9.0000,134.0000
1982-02-21 04:30:00 UTC,2445021.687500,29.6417,-93.6667,0037,6.25,-6.47,9.0000,136.0000
1982-02-21 05:00:00 UTC,2445021.708333,29.6417,-93.6667,0037,4.81,-6.39,8.0000,143.0000
1982-02-21 05:30:00 UTC,2445021.729167,29.6417,-93.6667,0037,0.47,-8.99,9.0000,177.0000
1982-02-21 06:00:00 UTC,2445021.750000,29.6417,-93.6667,0037,-5.26,-10.79,12.0000,206.0000
1982-02-21 06:30:00 UTC,2445021.770833,29.6417,-93.6667,0037,-8.18,-8.78,12.0000,223.0000
1982-02-21 07:00:00 UTC,2445021.791667,29.6417,-93.6667,0037,-8.48,-5.30,10.0000,238.0000
1982-02-21 07:30:00 UTC,2445021.812500,29.6417,-93.6667,0037,-5.52,-2.34,6.0000,247.0000
1982-02-21 08:00:00 UTC,2445021.833333,29.6417,-93.6667,0037,-3.00,0.10,3.0000,272.0000
1982-02-21 08:30:00 UTC,2445021.854167,29.6417,-93.6667,0037,0.73,2.91,3.0000,14.0000
1982-02-21 09:00:00 UTC,2445021.875000,29.6417,-93.6667,0037,2.72,5.35,6.0000,27.0000
1982-02-21 09:30:00 UTC,2445021.895833,29.6417,-93.6667,0037,3.29,6.18,7.0000,28.0000
1982-02-21 10:00:00 UTC,2445021.916667,29.6417,-93.6667,0037,3.81,5.87,7.0000,33.0000
1982-02-21 10:30:00 UTC,2445021.937500,29.6417,-93.6667,0037,3.91,5.80,7.0000,34.0000
1982-02-21 11:00:00 UTC,2445021.958333,29.6417,-93.6667,0037,3.63,7.13,8.0000,27.0000
1982-02-21 11:30:00 UTC,2445021.979167,29.6417,-93.6667,0037,2.62,6.49,7.0000,22.0000
1982-02-21 12:00:00 UTC,2445022.000000,29.6417,-93.6667,0037,1.95,4.60,5.0000,23.0000
1982-02-21 12:30:00 UTC,2445022.020833,29.6417,-93.6667,0037,1.29,4.83,5.0000,15.0000
1982-02-21 13:00:00 UTC,2445022.041667,29.6417,-93.6667,0037,0.97,6.93,7.0000,8.0000
1982-02-21 13:30:00 UTC,2445022.062500,29.6417,-93.6667,0037,0.97,6.93,7.0000,8.0000
1982-02-21 14:00:00 UTC,2445022.083333,29.6417,-93.6667,0037,0.09,5.00,5.0000,1.0000
1982-02-21 14:30:00 UTC,2445022.104167,29.6417,-93.6667,0037,-1.46,4.78,5.0000,343.0000
1982-02-21 15:00:00 UTC,2445022.125000,29.6417,-93.6667,0037,-2.54,5.44,6.0000,335.0000
1982-02-21 15:30:00 UTC,2445022.145833,29.6417,-93.6667,0037,-1.55,5.80,6.0000,345.0000
1982-02-21 16:00:00 UTC,2445022.166667,29.6417,-93.6667,0037,0.37,6.99,7.0000,3.0000
1982-02-21 16:30:00 UTC,2445022.187500,29.6417,-93.6667,0037,2.34,7.65,8.0000,17.0000
1982-02-21 17:00:00 UTC,2445022.208333,29.6417,-93.6667,0037,2.74,7.52,8.0000,20.0000
1982-02-21 17:30:00 UTC,2445022.229167,29.6417,-93.6667,0037,1.80,7.79,8.0000,13.0000
1982-02-21 18:00:00 UTC,2445022.250000,29.6417,-93.6667,0037,-0.52,5.98,6.0000,355.0000
1982-02-21 18:30:00 UTC,2445022.270833,29.6417,-93.6667,0037,-3.08,3.94,5.0000,322.0000
1982-02-21 19:00:00 UTC,2445022.291667,29.6417,-93.6667,0037,-4.29,2.58,5.0000,301.0000
1982-02-21 19:30:00 UTC,2445022.312500,29.6417,-93.6667,0037,-5.44,2.54,6.0000,295.0000
1982-02-21 20:00:00 UTC,2445022.333333,29.6417,-93.6667,0037,-6.62,2.28,7.0000,289.0000
1982-02-21 20:30:00 UTC,2445022.354167,29.6417,-93.6667,0037,-5.85,1.35,6.0000,283.0000
1982-02-21 21:00:00 UTC,2445022.375000,29.6417,-93.6667,0037,-4.95,0.70,5.0000,278.0000
1982-02-21 21:30:00 UTC,2445022.395833,29.6417,-93.6667,0037,-3.99,0.28,4.0000,274.0000
1982-02-21 22:00:00 UTC,2445022.416667,29.6417,-93.6667,0037,-4.99,0.35,5.0000,274.0000
1982-02-21 22:30:00 UTC,2445022.437500,29.6417,-93.6667,0037,-4.99,0.35,5.0000,274.0000
1982-02-21 23:00:00 UTC,2445022.458333,29.6417,-93.6667,0037,-3.98,-0.42,4.0000,264.0000
1982-02-21 23:30:00 UTC,2445022.479167,29.6417,-93.6667,0037,-3.85,-1.10,4.0000,254.0000
1982-02-22 00:00:00 UTC,2445022.500000,29.6417,-93.6667,0037,-3.91,-0.83,4.0000,258.0000
1982-02-22 00:30:00 UTC,2445022.520833,29.6417,-93.6667,0037,-3.99,-0.21,4.0000,267.0000
1982-02-22 01:00:00 UTC,2445022.541667,29.6417,-93.6667,0037,-3.00,-0.00,3.0000,270.0000
1982-02-22 01:30:00 UTC,2445022.562500,29.6417,-93.6667,0037,-2.98,0.37,3.0000,277.0000
1982-02-22 02:00:00 UTC,2445022.583333,29.6417,-93.6667,0037,-3.88,0.97,4.0000,284.0000
1982-02-22 02:30:00 UTC,2445022.604167,29.6417,-93.6667,0037,-4.76,1.55,5.0000,288.0000
1982-02-22 03:00:00 UTC,2445022.625000,29.6417,-93.6667,0037,-6.39,2.85,7.0000,294.0000
1982-02-22 03:30:00 UTC,2445022.645833,29.6417,-93.6667,0037,-5.94,3.71,7.0000,302.0000
1982-02-22 04:00:00 UTC,2445022.666667,29.6417,-93.6667,0037,-4.46,4.01,6.0000,312.0000
1982-02-22 04:30:00 UTC,2445022.687500,29.6417,-93.6667,0037,-2.72,4.19,5.0000,327.0000
1982-02-22 05:00:00 UTC,2445022.708333,29.6417,-93.6667,0037,-1.04,3.86,4.0000,345.0000
1982-02-22 05:30:00 UTC,2445022.729167,29.6417,-93.6667,0037,-0.16,3.00,3.0000,357.0000
1982-02-22 06:00:00 UTC,2445022.750000,29.6417,-93.6667,0037,-1.17,2.76,3.0000,337.0000
1982-02-22 06:30:00 UTC,2445022.770833,29.6417,-93.6667,0037,-2.05,2.19,3.0000,317.0000
1982-02-22 07:00:00 UTC,2445022.791667,29.6417,-93.6667,0037,-3.24,2.35,4.0000,306.0000
1982-02-22 07:30:00 UTC,2445022.812500,29.6417,-93.6667,0037,-2.76,1.17,3.0000,293.0000
1982-02-22 08:00:00 UTC,2445022.833333,29.6417,-93.6667,0037,-2.84,0.98,3.0000,289.0000
1982-02-22 08:30:00 UTC,2445022.854167,29.6417,-93.6667,0037,-2.67,1.36,3.0000,297.0000
1982-02-22 09:00:00 UTC,2445022.875000,29.6417,-93.6667,0037,-1.64,1.15,2.0000,305.0000
1982-02-22 09:30:00 UTC,2445022.895833,29.6417,-93.6667,0037,-0.85,0.53,1.0000,302.0000
1982-02-22 10:00:00 UTC,2445022.916667,29.6417,-93.6667,0037,0.00,0.00,0.0000,6.0000
1982-02-22 10:30:00 UTC,2445022.937500,29.6417,-93.6667,0037,0.67,0.74,1.0000,42.0000
1982-02-22 11:00:00 UTC,2445022.958333,29.6417,-93.6667,0037,0.72,0.69,1.0000,46.0000
1982-02-22 11:30:00 UTC,2445022.979167,29.6417,-93.6667,0037,0.78,0.63,1.0000,51.0000
1982-02-22 12:00:00 UTC,2445023.000000,29.6417,-93.6667,0037,1.73,1.00,2.0000,60.0000
1982-02-22 12:30:00 UTC,2445023.020833,29.6417,-93.6667,0037,3.50,1.94,4.0000,61.0000
1982-02-22 13:00:00 UTC,2445023.041667,29.6417,-93.6667,0037,4.53,2.11,5.0000,65.0000
1982-02-22 13:30:00 UTC,2445023.062500,29.6417,-93.6667,0037,4.70,1.71,5.0000,70.0000
1982-02-22 14:00:00 UTC,2445023.083333,29.6417,-93.6667,0037,4.53,2.11,5.0000,65.0000
1982-02-22 14:30:00 UTC,2445023.104167,29.6417,-93.6667,0037,4.85,3.53,6.0000,54.0000
1982-02-22 15:00:00 UTC,2445023.125000,29.6417,-93.6667,0037,5.20,4.68,7.0000,48.0000
1982-02-22 15:30:00 UTC,2445023.145833,29.6417,-93.6667,0037,5.56,5.75,8.0000,44.0000
1982-02-22 16:00:00 UTC,2445023.166667,29.6417,-93.6667,0037,4.21,5.59,7.0000,37.0000
1982-02-22 16:30:00 UTC,2445023.187500,29.6417,-93.6667,0037,1.71,4.70,5.0000,20.0000
1982-02-22 17:00:00 UTC,2445023.208333,29.6417,-93.6667,0037,-0.21,3.99,4.0000,357.0000
1982-02-22 17:30:00 UTC,2445023.229167,29.6417,-93.6667,0037,-1.04,3.86,4.0000,345.0000
1982-02-22 18:00:00 UTC,2445023.250000,29.6417,-93.6667,0037,-2.00,3.46,4.0000,330.0000
1982-02-22 18:30:00 UTC,2445023.270833,29.6417,-93.6667,0037,-3.53,1.88,4.0000,298.0000
1982-02-22 19:00:00 UTC,2445023.291667,29.6417,-93.6667,0037,-4.98,0.44,5.0000,275.0000
1982-02-22 19:30:00 UTC,2445023.312500,29.6417,-93.6667,0037,-5.97,-0.63,6.0000,264.0000
1982-02-22 20:00:00 UTC,2445023.333333,29.6417,-93.6667,0037,-6.73,-1.93,7.0000,254.0000
1982-02-22 20:30:00 UTC,2445023.354167,29.6417,-93.6667,0037,-7.36,-3.13,8.0000,247.0000
1982-02-22 21:00:00 UTC,2445023.375000,29.6417,-93.6667,0037,-6.24,-3.18,7.0000,243.0000
1982-02-22 21:30:00 UTC,2445023.395833,29.6417,-93.6667,0037,-5.87,-3.81,7.0000,237.0000
1982-02-22 22:00:00 UTC,2445023.416667,29.6417,-93.6667,0037,-7.09,-5.54,9.0000,232.0000
1982-02-22 22:30:00 UTC,2445023.437500,29.6417,-93.6667,0037,-8.67,-6.77,11.0000,232.0000
1982-02-22 23:00:00 UTC,2445023.458333,29.6417,-93.6667,0037,-9.95,-6.71,12.0000,236.0000
1982-02-22 23:30:00 UTC,2445023.479167,29.6417,-93.6667,0037,-10.39,-6.00,12.0000,240.0000
1982-02-23 00:00:00 UTC,2445023.500000,29.6417,-93.6667,0037,-9.97,-4.65,11.0000,245.0000
1982-02-23 00:30:00 UTC,2445023.520833,29.6417,-93.6667,0037,-8.51,-2.93,9.0000,251.0000
1982-02-23 01:00:00 UTC,2445023.541667,29.6417,-93.6667,0037,-6.82,-1.57,7.0000,257.0000
1982-02-23 01:30:00 UTC,2445023.562500,29.6417,-93.6667,0037,-6.97,-0.61,7.0000,265.0000
1982-02-23 02:00:00 UTC,2445023.583333,29.6417,-93.6667,0037,-7.97,0.70,8.0000,275.0000
1982-02-23 02:30:00 UTC,2445023.604167,29.6417,-93.6667,0037,-9.40,3.42,10.0000,290.0000
1982-02-23 03:00:00 UTC,2445023.625000,29.6417,-93.6667,0037,-9.23,5.99,11.0000,303.0000
1982-02-23 03:30:00 UTC,2445023.645833,29.6417,-93.6667,0037,-9.19,7.71,12.0000,310.0000
1982-02-23 04:00:00 UTC,2445023.666667,29.6417,-93.6667,0037,-9.03,9.35,13.0000,316.0000
1982-02-23 04:30:00 UTC,2445023.687500,29.6417,-93.6667,0037,-8.62,11.03,14.0000,322.0000
1982-02-23 05:00:00 UTC,2445023.708333,29.6417,-93.6667,0037,-7.50,12.99,15.0000,330.0000
1982-02-23 05:30:00 UTC,2445023.729167,29.6417,-93.6667,0037,-6.51,14.62,16.0000,336.0000
1982-02-23 06:00:00 UTC,2445023.750000,29.6417,-93.6667,0037,-5.47,15.04,16.0000,340.0000